* Astronomy

Members Login
Username 
 
Password 
    Remember Me  
Post Info TOPIC: Asteroid 2011 CE66


L

Posts: 131433
Date:
Asteroid 2011 CE66
Permalink  
 


Asteroid 2011 CE66 will make a close approach to the Earth (0.082 AU) on the 25th February, 2011.

Ephemeris
Date    TT    R. A. (2000) Decl.     Delta      r     Elong.  Phase     V
2011 02 25 09 47 46.0 -04 25 54 0.08255 1.0688 162.6 16.1 21.2
2011 02 26 09 45 31.6 -06 32 01 0.08252 1.0680 160.3 18.2 21.3
2011 02 27 09 43 18.2 -08 37 14 0.08264 1.0673 158.0 20.3 21.3
2011 02 28 09 41 06.2 -10 41 02 0.08292 1.0666 155.8 22.4 21.4


__________________


L

Posts: 131433
Date:
Permalink  
 

Orbital elements:
2011 CE66 Earth MOID = 0.0823 AU
Epoch 2011 Feb. 8.0 TT = JDT 2455600.5 MPC
M 337.18538 (2000.0) P Q
n 0.66995865 Peri. 204.24383 -0.98769332 -0.12890704
a 1.2935128 Node 327.95731 +0.15624750 -0.83849535
e 0.1789684 Incl. 9.61008 -0.00697371 -0.52944170
P 1.47 H 25.6 G 0.15 U 9

MPEC 2011 - C93


__________________
Page 1 of 1  sorted by
 
Quick Reply

Please log in to post quick replies.



Create your own FREE Forum
Report Abuse
Powered by ActiveBoard